[[{"header":{"parameterUnit":"m.s-1","parameterCategory":1,"la1":30.2991,"la2":30.254,"lo1":-89.0895,"lo2":-89.0444,"dy":0.0017,"dx":0.0017,"nx":28,"ny":28,"refTime":"2025-03-16T03:00:00:Z","depth":0,"parameterNumber":2,"parameterNumberName":"U-component_of_WINDS"},"data":[0,0,0,0,0,0,0,0,0,0,0,0,0,0,0,0,0,0,0,0,0,0,0,0,0,0,0,0,0,0,0,0,0,0,0,0,0,0,0,0,0,0,0,0,0,0,0,0,0,0,0,0,0,0,0,0,0,0,2.7979,2.7979,0,2.7978,2.7978,2.7978,2.7912,2.7911,2.7909,2.7907,2.7907,2.7908,2.791,0,0,0,0,0,0,0,0,0,0,0,0,0,2.7927,2.7928,2.7979,2.7979,2.7979,2.7978,2.7978,2.7978,2.7913,2.7911,2.7909,2.7907,2.7906,2.7908,2.791,0,0,0,0,0,0,0,0,0,0,0,0,0,2.794,2.7929,2.7979,2.7947,2.7944,2.7978,2.7978,2.7978,2.7913,2.7911,2.7908,2.7906,2.7905,2.7908,2.791,2.7975,0,0,2.7917,2.7918,0,0,0,0,0,0,0,0,2.7939,2.7942,2.7951,2.7949,2.7946,2.7943,2.7959,2.7977,2.7914,2.7925,2.7907,2.7904,2.7921,2.7922,2.7927,2.7975,2.7975,2.7917,2.7919,2.792,2.792,0,0,0,0,0,0,0,2.7938,2.7942,2.7978,2.7952,2.7948,2.7932,2.7931,2.7962,2.7937,2.7924,2.7919,2.792,2.7919,2.7925,2.7926,2.7975,2.7917,2.7919,2.7921,2.7922,2.8078,2.808,0,0,0,0,0,0,2.7942,2.7941,2.7979,2.7978,2.7936,2.7935,2.7934,2.7946,2.7936,2.7933,2.7922,2.7916,2.7922,2.7924,2.7926,2.8002,2.792,2.7922,2.7923,2.8075,2.8078,2.8081,0,0,0,0,0,0,2.7941,2.7946,2.7979,2.7959,2.7962,2.7939,2.7953,2.7947,2.7953,2.7935,2.793,2.7933,2.792,2.7923,2.7964,2.8001,2.7923,2.7925,2.8072,2.8076,2.808,2.8155,0,0,0,0,0,0,2.794,2.7946,2.797,2.796,2.7963,2.8016,2.7955,2.7949,2.7958,2.7951,2.7944,2.794,2.7918,2.796,2.7966,2.8003,2.7927,2.8068,2.8074,2.8078,2.8149,2.8161,2.8171,0,0,0,0,0,2.7938,2.7991,2.7972,2.7977,2.7993,2.8018,2.802,2.7994,2.7961,2.7985,2.7974,2.7941,2.7996,2.7965,2.7971,2.8009,2.8066,2.8072,2.8078,2.8144,2.8159,2.8171,0,0,0,0,0,0,2.8007,2.7989,2.7967,2.8019,2.8021,2.8007,2.8037,2.801,2.8021,2.8014,2.7981,2.798,2.8026,2.8022,2.7987,2.8072,2.8025,2.8033,2.8073,2.8087,2.8098,2.8098,2.7929,0,0,0,0,0,2.8028,2.805,2.8034,2.8081,2.8083,2.806,2.807,2.805,2.805,2.8051,2.8042,2.8044,2.8062,2.8074,2.809,2.8148,2.8146,2.8177,2.8189,2.8198,2.8205,2.8236,2.825,2.8102,2.8101,2.8101,0,0,2.8072,2.8065,2.8081,2.8094,2.8093,2.8117,2.8061,2.8089,2.8106,2.8055,2.8093,2.8087,2.8087,2.8137,2.8158,2.8134,2.8245,2.8206,2.8213,2.8215,2.8244,2.8258,2.827,2.8106,2.8105,2.8104,0,0,2.8164,2.8161,2.82,2.82,2.8199,2.8184,2.8194,2.8185,2.8179,2.8216,2.8179,2.8199,2.8231,2.8232,2.8237,2.8332,2.8302,2.8338,2.8396,2.8427,2.8439,2.8449,2.8483,2.8495,2.8345,2.8345,2.8345,0,2.8218,2.8252,2.8223,2.8254,2.8261,2.8216,2.8255,2.8257,2.8262,2.8268,2.8241,2.828,2.8277,2.8327,2.835,2.8355,2.8365,2.8338,2.8439,2.8449,2.8458,2.849,2.8503,2.8349,2.8349,2.8348,2.8348,0,2.832,2.8344,2.8376,2.8382,2.8393,2.8427,2.8404,2.8418,2.8397,2.8385,2.8424,2.8419,2.8433,2.8443,2.8423,2.8491,2.8476,2.8445,2.8397,2.8477,2.8507,2.8519,2.8355,2.8354,2.8352,2.8351,0,0,2.8454,2.8444,2.8456,2.8458,2.8455,2.8473,2.8507,2.852,2.8534,2.8539,2.8566,2.8594,2.8565,2.8571,2.855,2.8577,2.8653,2.8543,2.8542,2.8563,2.8728,2.8751,2.8766,2.8633,2.8635,2.8637,2.8728,0,2.8543,2.8599,2.8574,2.8633,2.8655,2.8613,2.8642,2.8644,2.8634,2.8651,2.864,2.8661,2.8621,2.8624,2.8649,2.8638,2.8685,2.8631,2.8658,2.8659,2.8659,2.8781,2.8806,2.8892,2.8739,2.8741,2.8742,0,2.8654,2.8664,2.8725,2.8718,2.8727,2.8753,2.8764,2.8782,2.8783,2.8774,2.8781,2.8754,2.8787,2.874,2.8784,2.8748,2.8758,2.8754,2.8757,2.8758,2.8706,2.8786,2.8919,2.8932,2.876,2.8759,2.8757,0,2.8746,2.8775,2.8815,2.8818,2.8812,2.8831,2.8829,2.8828,2.8838,2.8848,2.8854,2.8867,2.8875,2.8886,2.8864,2.8832,2.8912,2.8863,2.8905,2.8906,2.8924,2.8923,2.906,2.893,2.893,2.893,2.893,0,2.8848,2.8887,2.8856,2.8881,2.8924,2.8896,2.8939,2.8932,2.8931,2.8954,2.8919,2.8942,2.8911,2.8931,2.8914,2.8954,2.8957,2.8951,2.8946,2.8954,2.8955,2.896,2.8953,2.8933,2.8932,2.8932,2.8931,0,2.8957,2.8939,2.898,2.897,2.8969,2.9001,2.8993,2.9016,2.9003,2.9033,2.9039,2.902,2.9041,2.902,2.904,2.9029,2.9082,2.9069,2.9082,2.9078,2.9122,2.9118,2.9267,2.9285,2.9144,2.9145,2.9146,0,2.9023,2.9053,2.9047,2.906,2.906,2.9081,2.9092,2.9065,2.9078,2.9081,2.9104,2.9122,2.9136,2.9172,2.916,2.9175,2.9162,2.9213,2.9164,2.9171,2.9163,2.9161,2.9164,2.9223,2.9225,2.9226,2.9227,0,2.9143,2.9132,2.9149,2.9162,2.9176,2.9185,2.9192,2.9204,2.9177,2.9193,2.9214,2.9225,2.9246,2.9265,2.9277,2.9275,2.9247,2.9243,2.9253,2.9262,2.9268,2.9266,2.9109,2.9239,2.9238,2.9237,2.9236,2.9236,2.9232,2.9257,2.9256,2.9276,2.9279,2.9286,2.9307,2.9298,2.9316,2.9331,2.9314,2.9341,2.9342,2.9355,2.9356,2.9377,2.9355,2.9371,2.9375,2.9379,2.9385,2.9266,2.9379,2.9379,2.9378,2.9378,2.9378,0,2.935,2.9348,2.9366,2.9377,2.9393,2.9366,2.9372,2.9387,2.9411,2.9414,2.9428,2.9454,2.9472,2.9462,2.9478,2.9497,2.9484,2.9502,2.95,2.95,2.9404,2.9393,2.9511,2.9511,2.9511,2.9511,2.9511,2.9511,2.9412,2.9452,2.9442,2.9483,2.9481,2.9507,2.9513,2.952,2.9522,2.9552,2.9568,2.9561,2.9559,2.9575,2.9591,2.9588,2.9595,2.9618,2.961,2.952,2.9507,2.9494,2.9484,2.9619,2.962,2.9704,2.9705,2.9705]},{"header":{"parameterUnit":"m.s-1","parameterCategory":1,"la1":30.2991,"la2":30.254,"lo1":-89.0895,"lo2":-89.0444,"dy":0.0017,"dx":0.0017,"nx":28,"ny":28,"refTime":"2025-03-16T03:00:00:Z","depth":0,"parameterNumber":3,"parameterNumberName":"V-component_of_WINDS"},"data":[0,0,0,0,0,0,0,0,0,0,0,0,0,0,0,0,0,0,0,0,0,0,0,0,0,0,0,0,0,0,0,0,0,0,0,0,0,0,0,0,0,0,0,0,0,0,0,0,0,0,0,0,0,0,0,0,0,0,6.287,6.2874,0,6.3273,6.3278,6.3283,6.3376,6.3373,6.337,6.3368,6.3783,6.3797,6.381,0,0,0,0,0,0,0,0,0,0,0,0,0,6.218,6.2192,6.2869,6.2874,6.2879,6.3273,6.3278,6.3284,6.3376,6.3373,6.337,6.3366,6.3779,6.3795,6.3811,0,0,0,0,0,0,0,0,0,0,0,0,0,6.2521,6.2196,6.2868,6.2973,6.2986,6.3272,6.3278,6.3285,6.3377,6.3373,6.3369,6.3365,6.3773,6.3793,6.3814,6.4024,0,0,6.3876,6.3885,0,0,0,0,0,0,0,0,6.2502,6.2546,6.2953,6.2966,6.2982,6.327,6.3188,6.3533,6.3378,6.3229,6.3368,6.3363,6.3616,6.3649,6.3734,6.4043,6.4061,6.3878,6.3891,6.3899,6.3905,0,0,0,0,0,0,0,6.2478,6.2529,6.3029,6.2958,6.2976,6.3,6.3044,6.3254,6.3441,6.3242,6.3249,6.3296,6.3623,6.3714,6.3745,6.4067,6.3877,6.3896,6.3908,6.3916,6.4571,6.4576,0,0,0,0,0,0,6.2436,6.2509,6.3016,6.3041,6.2726,6.3016,6.3065,6.3182,6.3439,6.3474,6.3299,6.3299,6.3681,6.3721,6.376,6.4025,6.3899,6.3918,6.393,6.4566,6.4572,6.4578,0,0,0,0,0,0,6.242,6.248,6.3,6.2778,6.2846,6.3032,6.3163,6.3192,6.3283,6.3482,6.3516,6.3357,6.368,6.3731,6.3958,6.4041,6.3928,6.3946,6.456,6.4568,6.4575,6.4555,0,0,0,0,0,0,6.24,6.2474,6.2555,6.2779,6.2857,6.3191,6.3168,6.3203,6.3318,6.3321,6.3546,6.358,6.368,6.3927,6.3978,6.4067,6.3962,6.4554,6.4564,6.4573,6.4549,6.4561,6.4571,0,0,0,0,0,6.2375,6.2534,6.2559,6.262,6.2963,6.3196,6.3241,6.3353,6.3324,6.3408,6.3536,6.3572,6.4022,6.3949,6.4008,6.4104,6.4549,6.4561,6.4572,6.4545,6.4559,6.4571,0,0,0,0,0,0,6.2316,6.2565,6.2596,6.2831,6.2991,6.3211,6.332,6.3364,6.3536,6.3532,6.3665,6.3715,6.3934,6.4041,6.3955,6.4322,6.4285,6.4309,6.4244,6.4259,6.427,6.4241,6.3979,0,0,0,0,0,6.233,6.2498,6.2706,6.2894,6.2973,6.3132,6.3238,6.331,6.3482,6.355,6.3695,6.3861,6.404,6.4155,6.4331,6.4564,6.4616,6.4659,6.467,6.4678,6.4698,6.4832,6.4854,6.4616,6.4615,6.4615,0,0,6.2362,6.2518,6.2616,6.2886,6.3019,6.3191,6.3189,6.337,6.3499,6.3578,6.3802,6.3913,6.4107,6.4339,6.4448,6.4435,6.4775,6.4693,6.4698,6.4714,6.4846,6.4868,6.4888,6.4623,6.4622,6.4621,0,0,6.2507,6.2641,6.2814,6.2946,6.3147,6.3252,6.3293,6.3507,6.3584,6.381,6.3873,6.4028,6.4333,6.4469,6.4578,6.4774,6.4815,6.4828,6.4886,6.5015,6.5034,6.5051,6.5124,6.5148,6.4846,6.4846,6.4846,0,6.2521,6.2782,6.2896,6.3076,6.3193,6.3271,6.3447,6.357,6.3818,6.3898,6.3879,6.4265,6.44,6.4666,6.4713,6.4798,6.4851,6.4804,6.5021,6.504,6.5058,6.5129,6.5155,6.4847,6.4847,6.4847,6.4847,0,6.2791,6.297,6.3085,6.3323,6.3453,6.3629,6.3771,6.3888,6.3949,6.4056,6.4286,6.4451,6.4662,6.473,6.4791,6.5005,6.4991,6.4995,6.4961,6.5079,6.5148,6.5176,6.4847,6.4847,6.4847,6.4847,0,0,6.2913,6.321,6.3251,6.336,6.3587,6.3729,6.3908,6.4114,6.4214,6.4381,6.4537,6.4793,6.4799,6.4922,6.4999,6.5111,6.5259,6.5103,6.5109,6.5128,6.5507,6.5504,6.5534,6.5285,6.5291,6.5295,6.5492,0,6.3088,6.3412,6.352,6.379,6.3958,6.4034,6.4191,6.4348,6.4452,6.4611,6.4726,6.4907,6.4899,6.4974,6.5089,6.5216,6.5337,6.5203,6.5433,6.544,6.5386,6.5569,6.5568,6.5745,6.5519,6.5524,6.5527,0,6.3337,6.3508,6.3794,6.4001,6.4076,6.4215,6.4413,6.4563,6.4742,6.481,6.4948,6.5016,6.5208,6.516,6.5427,6.5334,6.5434,6.5511,6.552,6.5549,6.5493,6.5605,6.5804,6.5831,6.557,6.5566,6.5563,0,6.34,6.3702,6.3913,6.4004,6.4249,6.4346,6.4453,6.4628,6.4745,6.4917,6.4995,6.5187,6.5294,6.5441,6.556,6.5514,6.5818,6.5779,6.5881,6.5879,6.5945,6.5939,6.6165,6.6004,6.6003,6.6003,6.6002,0,6.3586,6.3759,6.3945,6.4075,6.4271,6.4393,6.4584,6.4695,6.485,6.5004,6.508,6.5223,6.5369,6.5532,6.5625,6.5834,6.588,6.5942,6.5965,6.5937,6.593,6.6007,6.5999,6.601,6.6008,6.6007,6.6006,0,6.3691,6.3823,6.4058,6.4271,6.4328,6.4464,6.4647,6.4776,6.4883,6.5076,6.5129,6.5297,6.5492,6.5624,6.5873,6.5936,6.6163,6.6183,6.6103,6.6115,6.621,6.62,6.6496,6.6542,6.6346,6.6348,6.6349,0,6.3803,6.3938,6.4165,6.4273,6.4381,6.4554,6.4674,6.4798,6.492,6.5135,6.5239,6.5438,6.5605,6.5913,6.6058,6.6249,6.6276,6.6366,6.6305,6.6273,6.6281,6.6273,6.6288,6.6376,6.6378,6.6379,6.638,0,6.3988,6.4047,6.4216,6.441,6.455,6.4708,6.4867,6.4951,6.5104,6.5237,6.5437,6.5566,6.5821,6.6019,6.6224,6.6334,6.6384,6.6397,6.6432,6.6406,6.6355,6.6387,6.6132,6.6391,6.639,6.6389,6.6389,6.6388,6.4103,6.4227,6.4406,6.4593,6.4725,6.4872,6.5005,6.5128,6.5296,6.5514,6.5576,6.5785,6.5962,6.6242,6.6356,6.6521,6.6514,6.6562,6.6576,6.6586,6.6588,6.6326,6.6559,6.6559,6.6558,6.6558,6.6558,0,6.4295,6.4414,6.4584,6.4804,6.4951,6.4982,6.5159,6.5281,6.5463,6.5623,6.5786,6.6016,6.6208,6.6368,6.6567,6.6669,6.6696,6.6717,6.6712,6.6738,6.6582,6.6534,6.6691,6.6691,6.6691,6.6691,6.6691,6.6691,6.4412,6.4624,6.4703,6.4982,6.51,6.5305,6.5404,6.554,6.5668,6.5922,6.6082,6.6184,6.6345,6.6556,6.6734,6.6776,6.6847,6.6863,6.6911,6.6763,6.6748,6.6734,6.669,6.6877,6.6877,6.7053,6.7054,6.7056]}]]